Ephrata, WA
on Monday, December 17, 2012

Monday
Previous Day Next Day
Daily Summary
 ActualAverageRecord
Temperature
Mean Temperature °F 26°F  
Max Temperature 40°F 33°F 53°F (1990)
Min Temperature 23°F 21°F -11°F (1964)
Degree Days
Heating Degree Days 33 38  
Month to date heating degree days 504 623  
Since 1 July heating degree days 1764 2042  
Cooling Degree Days 0 0  
Month to date cooling degree days 0 0  
Year to date cooling degree days 837 772  
Moisture
Dew Point 27°F   
Average Humidity 75    
Maximum Humidity 96    
Minimum Humidity 54    
Precipitation
Precipitation T in 0.04 in 0.21 in (1992)
Month to date precipitation 1.19 0.69  
Year to date precipitation 8.14 7.30  
Wind
Wind Speed 12 mph   
Max Wind Speed 29 mph   
Max Gust Speed 39 mph   
Visibility 9 miles   
Events Fog , Rain   

Key: T is trace of precipitation, MM is missing value
Source: NWS Daily Summary
Time(PST)TemperatureDew PointHumidity Pressure Visibility Wind DirectionWind SpeedGust SpeedPrecipitationEvents Conditions
12:51 AM 33.8°F 32.0°F 93% 29.12 in 10.0 miles SSW 6.9 mph - N/A   Overcast
12:53 AM 33.1°F 32.0°F 96% 29.15 in 10.0 miles SSW 6.9 mph - 0.00 in Rain Light Rain
1:11 AM 33.8°F 32.0°F 93% 29.11 in 10.0 miles SSW 6.9 mph - 0.00 in   Overcast
1:53 AM 33.1°F 33.1°F 100% 29.13 in 10.0 miles Calm Calm - 0.00 in   Overcast
2:38 AM 33.8°F 33.8°F 100% 29.10 in 1.8 miles Calm Calm - N/A   Overcast
2:53 AM 33.1°F 30.9°F 92% 29.13 in 0.5 miles NNW 3.5 mph - N/A Fog Fog
3:25 AM 33.8°F 33.8°F 100% 29.08 in 2.0 miles Calm Calm - N/A   Overcast
3:34 AM 33.8°F 33.8°F 100% 29.07 in 8.0 miles Calm Calm - N/A   Overcast
3:53 AM 33.1°F 32.0°F 96% 29.10 in 10.0 miles SSW 3.5 mph - N/A   Mostly Cloudy
4:53 AM 36.0°F 32.0°F 86% 29.09 in 10.0 miles SSW 15.0 mph - N/A   Clear
5:53 AM 36.0°F 32.0°F 86% 29.13 in 10.0 miles SW 13.8 mph - N/A   Clear
6:53 AM 37.9°F 30.9°F 76% 29.15 in 10.0 miles SSW 8.1 mph - N/A   Partly Cloudy
7:53 AM 39.0°F 30.0°F 70% 29.22 in 10.0 miles SW 24.2 mph 29.9 mph N/A   Scattered Clouds
8:53 AM 39.0°F 28.0°F 65% 29.28 in 10.0 miles WSW 13.8 mph - N/A   Clear
9:53 AM 39.0°F 28.9°F 67% 29.33 in 10.0 miles SW 21.9 mph 32.2 mph N/A   Clear
10:53 AM 39.0°F 28.9°F 67% 29.39 in 10.0 miles SW 25.3 mph 34.5 mph N/A   Unknown
11:53 AM 39.0°F 28.9°F 67% 29.43 in 10.0 miles SW 24.2 mph 35.7 mph N/A   Clear
12:53 PM 39.0°F 26.1°F 60% 29.48 in 10.0 miles WSW 20.7 mph 28.8 mph N/A   Clear
1:53 PM 39.9°F 24.1°F 53% 29.52 in 10.0 miles WSW 21.9 mph 27.6 mph N/A   Clear
4:53 PM 34.0°F 25.0°F 70% 29.67 in 10.0 miles WSW 10.4 mph - N/A   Clear
5:53 PM 33.1°F 21.9°F 64% 29.70 in 10.0 miles SW 8.1 mph - N/A   Clear
6:53 PM 32.0°F 21.9°F 66% 29.73 in 10.0 miles WSW 13.8 mph - N/A   Clear
7:53 PM 28.9°F 19.0°F 67% 29.77 in 10.0 miles NNW 4.6 mph - N/A   Clear
8:53 PM 28.0°F 18.0°F 66% 29.79 in 10.0 miles NW 9.2 mph - N/A   Clear
9:53 PM 27.0°F 17.1°F 66% 29.81 in 10.0 miles NW 4.6 mph - N/A   Clear
10:53 PM 24.1°F 17.1°F 75% 29.82 in 10.0 miles NE 4.6 mph - N/A   Clear
11:53 PM 26.1°F 18.0°F 71% 29.84 in 10.0 miles WSW 10.4 mph - N/A   Clear
Moon Phase
Dec. 17 Dec. 20 Dec. 28 Jan. 04 Jan. 11
Sunrise:07:40 AM (PST) Moon Rise:10:34 AM (PST)12/17
Sunset:04:08 PM (PST) Moon Set:09:55 PM (PST)12/17

Copyright © 2014 The Weather Underground, Inc.